Lady Elliot Island Observation History
Time Wind Speed Temp Pressure Rel. Hum Rain
03/01:30pm SE 5-6 kts 27.9°c 1010.7 hPa 65% 0.0mm
03/01:00pm SSE 5-8 kts 28.7°c 1010.9 hPa 65% 0.0mm
03/12:30pm SSE 5-7 kts 28.4°c 1011.5 hPa 65% 0.0mm
03/12:00pm S 6-8 kts 28.3°c 1011.7 hPa 67% 0.0mm
03/11:30am SE 5-7 kts 27.9°c 1011.9 hPa 67% 0.0mm
03/11:00am SSE 5-7 kts 27.9°c 1012.5 hPa 67% 0.0mm
03/10:30am SE 4-6 kts 27.6°c 1013.0 hPa 66% 0.0mm
03/10:00am SSE 4-5 kts 27.1°c 1013.2 hPa 69% 0.0mm
03/09:30am SSW 4-6 kts 26.5°c 1013.2 hPa 72% 0.0mm
03/09:00am S 5-7 kts 26.3°c 1013.4 hPa 78% 1.0mm
03/08:30am WNW 3 kts 24.7°c 1013.5 hPa 83% 1.0mm
03/08:00am NNE 3-5 kts 24.2°c 1013.3 hPa 83% 1.0mm
03/07:30am E 8-17 kts 25.5°c 1013.0 hPa 79% 0.8mm
03/07:00am E 7-9 kts 25.8°c 1012.7 hPa 72% 0.8mm
03/06:30am E 8-11 kts 25.2°c 1012.3 hPa 75% 0.8mm
03/06:00am ENE 8-11 kts 25.0°c 1012.0 hPa 77% 0.8mm
03/05:30am ENE 8-11 kts 25.0°c 1011.7 hPa 77% 0.8mm
03/05:00am E 9-12 kts 24.9°c 1011.4 hPa 77% 0.8mm
03/04:30am E 9-12 kts 24.9°c 1011.4 hPa 75% 0.8mm
03/04:00am E 9-11 kts 24.8°c 1011.3 hPa 76% 0.8mm
03/03:30am E 9-11 kts 24.8°c 1011.4 hPa 75% 0.8mm
03/03:00am E 8-11 kts 24.8°c 1011.4 hPa 76% 0.8mm
03/02:30am E 8-11 kts 24.7°c 1011.8 hPa 76% 0.8mm
03/02:00am E 8-11 kts 24.7°c 1012.1 hPa 74% 0.8mm
03/01:30am E 9-11 kts 24.8°c 1012.4 hPa 75% 0.8mm
03/01:00am ESE 8-10 kts 24.4°c 1012.6 hPa 75% 0.8mm
03/12:30am ESE 7-10 kts 24.3°c 1012.8 hPa 75% 0.8mm
03/12:00am ESE 7-9 kts 24.3°c 1013.2 hPa 75% 0.8mm
Time Wind Speed Temp Pressure Rel. Hum Rain
02/11:30pm E 8-10 kts 24.6°c 1013.3 hPa 73% 0.8mm
02/11:00pm ESE 8-10 kts 24.4°c 1013.3 hPa 74% 0.8mm
02/10:30pm E 8-10 kts 24.6°c 1013.6 hPa 73% 0.8mm
02/10:00pm ESE 9-11 kts 24.7°c 1013.9 hPa 73% 0.8mm
02/09:30pm E 8-11 kts 24.8°c 1013.9 hPa 70% 0.8mm
02/09:00pm ESE 9-11 kts 24.9°c 1014.1 hPa 71% 0.8mm
02/08:30pm ESE 9-12 kts 25.1°c 1014.0 hPa 71% 0.8mm
02/08:00pm E 11-13 kts 25.2°c 1013.7 hPa 68% 0.8mm
02/07:30pm E 11-14 kts 25.1°c 1013.4 hPa 72% 0.8mm
02/07:00pm E 10-13 kts 25.3°c 1013.3 hPa 74% 0.8mm
02/06:30pm E 9-12 kts 25.3°c 1013.1 hPa 75% 0.8mm
02/06:00pm E 10-13 kts 25.3°c 1013.1 hPa 73% 0.8mm
02/05:30pm E 10-13 kts 25.7°c 1012.9 hPa 73% 0.8mm
02/05:00pm E 9-13 kts 26.2°c 1012.8 hPa 71% 0.8mm
02/04:30pm E 10-13 kts 26.9°c 1012.9 hPa 67% 0.8mm
02/04:00pm E 10-13 kts 27.2°c 1012.8 hPa 64% 0.8mm
02/03:30pm E 10-13 kts 27.7°c 1012.8 hPa 62% 0.8mm
02/03:00pm E 11-14 kts 27.8°c 1012.9 hPa 64% 0.8mm
02/02:30pm E 10-13 kts 26.7°c 1013.0 hPa 70% 0.8mm
02/02:00pm ESE 13-16 kts 27.2°c 1013.1 hPa 68% 0.8mm
02/01:30pm ENE 7-13 kts 27.1°c 1013.5 hPa 73% 0.6mm
02/01:00pm E 13-20 kts 25.7°c 1013.9 hPa 72% 0.6mm
02/12:30pm ESE 9-14 kts 26.7°c 1014.2 hPa 69% 0.6mm
02/12:00pm ESE 10-13 kts 28.2°c 1014.5 hPa 63% 0.4mm
02/11:30am ESE 11-15 kts 26.4°c 1014.7 hPa 73% 0.4mm
02/11:00am ESE 11-14 kts 25.7°c 1015.1 hPa 78% 0.4mm
02/10:30am ESE 16-21 kts 25.1°c 1015.3 hPa 79% 0.2mm
02/10:00am ESE 10-13 kts 27.2°c 1015.3 hPa 73% 0.2mm
02/09:30am SE 7-9 kts 25.2°c 1015.2 hPa 85% 0.2mm
02/09:00am ESE 14-19 kts 24.5°c 1015.4 hPa 82% 0.0mm
02/08:30am ESE 13-16 kts 25.1°c 1015.3 hPa 76% 0.0mm
02/08:00am ESE 11-13 kts 25.5°c 1015.0 hPa 75% 0.0mm
02/07:30am ESE 11-14 kts 25.6°c 1014.8 hPa 72% 0.0mm
02/07:00am SE 11-14 kts 25.8°c 1014.5 hPa 75% 0.0mm
02/06:30am SE 11-15 kts 24.8°c 1014.3 hPa 76% 0.0mm
02/06:00am SE 10-13 kts 24.8°c 1014.0 hPa 77% 0.0mm
02/05:30am SE 10-13 kts 24.7°c 1013.9 hPa 74% 0.0mm
02/05:00am SE 11-14 kts 24.8°c 1013.6 hPa 75% 0.0mm
02/04:30am ESE 11-14 kts 24.9°c 1013.5 hPa 76% 0.0mm
02/04:00am ESE 12-16 kts 24.9°c 1013.4 hPa 75% 0.0mm
02/03:30am ESE 11-14 kts 24.9°c 1013.5 hPa 76% 0.0mm
02/03:00am ESE 10-12 kts 24.9°c 1013.7 hPa 75% 0.0mm
02/02:30am ESE 11-14 kts 25.0°c 1013.7 hPa 75% 0.0mm
02/02:00am ESE 12-15 kts 24.9°c 1014.2 hPa 74% 0.0mm
02/01:30am E 11-15 kts 25.2°c 1014.5 hPa 76% 0.0mm
02/01:00am ESE 10-13 kts 24.9°c 1015.1 hPa 75% 0.0mm
02/12:30am ESE 10-13 kts 25.0°c 1015.5 hPa 76% 0.0mm
02/12:00am ESE 11-13 kts 25.0°c 1015.6 hPa 72% 0.0mm
Time Wind Speed Temp Pressure Rel. Hum Rain
01/11:30pm ESE 12-15 kts 25.0°c 1016.0 hPa 76% 0.0mm
01/11:00pm ESE 11-15 kts 25.0°c 1016.0 hPa 76% 0.0mm
01/10:30pm ESE 11-15 kts 25.0°c 1016.3 hPa 75% 0.0mm
01/10:00pm ESE 12-15 kts 25.0°c 1016.2 hPa 74% 0.0mm
01/09:30pm ESE 12-15 kts 25.0°c 1016.0 hPa 76% 0.0mm
01/09:00pm ESE 12-15 kts 25.1°c 1016.0 hPa 75% 0.0mm
01/08:30pm ESE 12-15 kts 25.1°c 1016.0 hPa 75% 0.0mm
01/08:00pm ESE 12-15 kts 25.0°c 1015.7 hPa 75% 0.0mm
01/07:30pm ESE 10-13 kts 25.0°c 1015.7 hPa 75% 0.0mm
01/07:00pm ESE 10-12 kts 25.1°c 1015.5 hPa 74% 0.0mm
01/06:30pm ESE 9-13 kts 25.0°c 1015.3 hPa 73% 0.0mm
01/06:00pm ESE 10-13 kts 25.2°c 1015.1 hPa 72% 0.0mm
01/05:30pm ESE 10-12 kts 25.6°c 1014.7 hPa 70% 0.0mm
01/05:00pm ESE 11-13 kts 26.3°c 1014.5 hPa 67% 0.0mm
01/04:30pm ESE 10-13 kts 27.0°c 1014.3 hPa 62% 0.0mm
01/04:00pm ESE 9-11 kts 27.9°c 1014.3 hPa 63% 0.0mm
01/03:30pm ESE 9-12 kts 28.0°c 1014.4 hPa 61% 0.0mm
01/03:00pm ESE 9-11 kts 28.5°c 1014.4 hPa 59% 0.0mm
01/02:30pm SE 9-11 kts 28.6°c 1014.6 hPa 58% 0.0mm
01/02:00pm SE 8-12 kts 28.7°c 1015.0 hPa 58% 0.0mm
01/01:30pm SE 8-11 kts 28.4°c 1015.1 hPa 57% 0.0mm
01/01:00pm SE 8-12 kts 29.8°c 1015.3 hPa 57% 0.0mm
01/12:30pm ESE 9-12 kts 28.9°c 1015.5 hPa 57% 0.0mm
01/12:00pm ESE 10-13 kts 29.5°c 1015.6 hPa 58% 0.0mm
01/11:30am ESE 9-11 kts 29.2°c 1015.9 hPa 59% 0.0mm
01/11:00am ESE 9-11 kts 29.1°c 1016.3 hPa 62% 0.0mm
01/10:30am ESE 9-11 kts 28.7°c 1016.6 hPa 62% 0.0mm
01/10:00am ESE 10-12 kts 28.5°c 1016.7 hPa 57% 0.0mm
01/09:30am ESE 9-11 kts 28.4°c 1016.7 hPa 59% 0.0mm
01/09:00am ESE 9-12 kts 28.1°c 1016.8 hPa 63% 0.0mm
01/08:30am ESE 10-11 kts 27.5°c 1016.6 hPa 63% 0.0mm
01/08:00am ESE 8-11 kts 27.3°c 1016.4 hPa 66% 0.0mm
01/07:30am ESE 8-11 kts 26.4°c 1016.3 hPa 68% 0.0mm
01/07:00am ESE 8-10 kts 25.5°c 1016.1 hPa 70% 0.0mm
01/06:30am E 8-9 kts 24.9°c 1016.0 hPa 73% 0.0mm
01/06:00am ESE 8-11 kts 24.5°c 1015.3 hPa 74% 0.0mm
01/05:30am E 8-10 kts 24.6°c 1015.1 hPa 73% 0.0mm
01/05:00am E 8-10 kts 24.6°c 1014.8 hPa 74% 0.0mm
01/04:30am E 9-12 kts 24.6°c 1014.6 hPa 74% 0.0mm
01/04:00am E 8-11 kts 24.7°c 1014.6 hPa 75% 0.0mm
01/03:30am E 9-11 kts 24.6°c 1014.6 hPa 75% 0.0mm
01/03:00am E 8-11 kts 24.8°c 1014.6 hPa 77% 0.0mm
01/02:30am ENE 8-11 kts 24.7°c 1014.6 hPa 77% 0.0mm
01/02:00am ENE 7-11 kts 24.7°c 1014.8 hPa 76% 0.0mm
01/01:30am ENE 8-13 kts 24.7°c 1014.7 hPa 78% 0.0mm
01/01:00am ENE 8-11 kts 24.7°c 1014.8 hPa 78% 0.0mm
01/12:30am ENE 7-11 kts 24.7°c 1014.9 hPa 79% 0.0mm
01/12:00am ENE 7-10 kts 24.7°c 1015.0 hPa 79% 0.0mm